TimeMST,TemperatureF,Dew PointF,Humidity,Sea Level PressureIn,VisibilityMPH,Wind Direction,Wind SpeedMPH,Gust SpeedMPH,PrecipitationIn,Events,Conditions,WindDirDegrees,DateUTC
12:15 AM,42.8,17.6,36,30.24,10.0,Calm,Calm,-,N/A,,Clear,0,2013-02-12 07:15:00
12:35 AM,41.0,17.6,39,30.25,10.0,NE,3.5,-,N/A,,Clear,40,2013-02-12 07:35:00
12:55 AM,41.0,17.6,39,30.25,10.0,North,4.6,-,N/A,,Clear,10,2013-02-12 07:55:00
1:15 AM,41.0,15.8,36,30.25,10.0,North,6.9,-,N/A,,Clear,10,2013-02-12 08:15:00
1:35 AM,42.8,15.8,34,30.26,10.0,North,3.5,-,N/A,,Clear,10,2013-02-12 08:35:00
1:55 AM,41.0,17.6,39,30.26,10.0,North,3.5,-,N/A,,Clear,350,2013-02-12 08:55:00
2:15 AM,42.8,23.0,46,30.26,10.0,NNW,4.6,-,N/A,,Clear,340,2013-02-12 09:15:00
2:35 AM,42.8,23.0,46,30.26,10.0,Calm,Calm,-,N/A,,Clear,0,2013-02-12 09:35:00
2:55 AM,44.6,17.6,34,30.26,10.0,NNE,10.4,-,N/A,,Clear,20,2013-02-12 09:55:00
3:15 AM,46.4,15.8,29,30.26,10.0,NNE,12.7,-,N/A,,Clear,20,2013-02-12 10:15:00
3:35 AM,46.4,17.6,32,30.26,10.0,North,17.3,-,N/A,,Clear,360,2013-02-12 10:35:00
3:55 AM,44.6,15.8,31,30.26,10.0,North,12.7,-,N/A,,Clear,10,2013-02-12 10:55:00
4:15 AM,44.6,15.8,31,30.26,10.0,North,18.4,-,N/A,,Clear,360,2013-02-12 11:15:00
4:35 AM,44.6,15.8,31,30.26,10.0,North,19.6,-,N/A,,Clear,10,2013-02-12 11:35:00
5:15 AM,44.6,15.8,31,30.29,10.0,North,16.1,-,N/A,,Clear,10,2013-02-12 12:15:00
5:35 AM,44.6,15.8,31,30.30,10.0,North,13.8,-,N/A,,Clear,360,2013-02-12 12:35:00
5:55 AM,44.6,15.8,31,30.30,10.0,North,15.0,-,N/A,,Clear,10,2013-02-12 12:55:00
6:15 AM,44.6,15.8,31,30.31,10.0,North,11.5,-,N/A,,Clear,350,2013-02-12 13:15:00
6:35 AM,42.8,14.0,31,30.32,10.0,North,11.5,-,N/A,,Clear,350,2013-02-12 13:35:00
6:55 AM,42.8,15.8,34,30.32,10.0,North,10.4,-,N/A,,Clear,350,2013-02-12 13:55:00
7:15 AM,41.0,15.8,36,30.32,10.0,NNW,8.1,-,N/A,,Clear,340,2013-02-12 14:15:00
7:35 AM,42.8,15.8,34,30.33,10.0,North,11.5,-,N/A,,Clear,10,2013-02-12 14:35:00
7:55 AM,42.8,15.8,34,30.34,10.0,North,11.5,-,N/A,,Clear,10,2013-02-12 14:55:00
8:15 AM,44.6,12.2,27,30.34,10.0,North,17.3,-,N/A,,Clear,360,2013-02-12 15:15:00
8:35 AM,44.6,14.0,29,30.35,10.0,North,17.3,-,N/A,,Clear,360,2013-02-12 15:35:00
8:55 AM,44.6,14.0,29,30.35,10.0,North,16.1,-,N/A,,Clear,10,2013-02-12 15:55:00
9:15 AM,44.6,14.0,29,30.36,10.0,North,17.3,-,N/A,,Clear,350,2013-02-12 16:15:00
9:35 AM,46.4,14.0,27,30.36,10.0,North,18.4,24.2,N/A,,Clear,360,2013-02-12 16:35:00
9:55 AM,46.4,14.0,27,30.37,10.0,North,18.4,-,N/A,,Clear,350,2013-02-12 16:55:00
10:15 AM,48.2,12.2,24,30.36,10.0,North,24.2,27.6,N/A,,Clear,350,2013-02-12 17:15:00
10:35 AM,48.2,10.4,22,30.36,10.0,NNW,24.2,-,N/A,,Clear,340,2013-02-12 17:35:00
10:55 AM,50.0,10.4,20,30.37,10.0,NNW,21.9,27.6,N/A,,Clear,340,2013-02-12 17:55:00
11:15 AM,50.0,8.6,19,30.37,10.0,North,19.6,-,N/A,,Clear,350,2013-02-12 18:15:00
11:35 AM,51.8,10.4,19,30.37,10.0,North,18.4,24.2,N/A,,Clear,350,2013-02-12 18:35:00
11:55 AM,53.6,10.4,18,30.36,10.0,NNW,17.3,23.0,N/A,,Clear,340,2013-02-12 18:55:00
12:15 PM,53.6,8.6,16,30.35,10.0,NNW,16.1,-,N/A,,Clear,340,2013-02-12 19:15:00
12:35 PM,53.6,10.4,18,30.34,10.0,NNW,17.3,25.3,N/A,,Clear,340,2013-02-12 19:35:00
12:55 PM,55.4,8.6,15,30.33,10.0,NNW,16.1,23.0,N/A,,Clear,340,2013-02-12 19:55:00
1:15 PM,55.4,10.4,17,30.31,10.0,NNW,18.4,25.3,N/A,,Clear,340,2013-02-12 20:15:00
1:35 PM,55.4,10.4,17,30.30,10.0,North,17.3,24.2,N/A,,Clear,350,2013-02-12 20:35:00
1:55 PM,55.4,12.2,18,30.29,10.0,NNW,19.6,23.0,N/A,,Clear,340,2013-02-12 20:55:00
2:15 PM,55.4,10.4,17,30.28,10.0,North,19.6,-,N/A,,Clear,350,2013-02-12 21:15:00
2:35 PM,57.2,10.4,16,30.27,10.0,NNW,19.6,-,N/A,,Clear,340,2013-02-12 21:35:00
2:55 PM,57.2,10.4,16,30.26,10.0,NNW,18.4,-,N/A,,Clear,340,2013-02-12 21:55:00
3:15 PM,57.2,10.4,16,30.26,10.0,NNW,16.1,-,N/A,,Clear,340,2013-02-12 22:15:00
3:35 PM,57.2,12.2,17,30.26,10.0,NNW,20.7,25.3,N/A,,Clear,340,2013-02-12 22:35:00
3:55 PM,59.0,14.0,17,30.26,10.0,North,17.3,24.2,N/A,,Clear,350,2013-02-12 22:55:00
4:15 PM,59.0,14.0,17,30.26,10.0,NNW,17.3,24.2,N/A,,Clear,340,2013-02-12 23:15:00
4:35 PM,59.0,14.0,17,30.25,10.0,NNW,17.3,-,N/A,,Clear,340,2013-02-12 23:35:00
4:55 PM,59.0,12.2,16,30.25,10.0,NNW,17.3,-,N/A,,Clear,340,2013-02-12 23:55:00
5:15 PM,59.0,14.0,17,30.25,10.0,NNW,13.8,-,N/A,,Clear,340,2013-02-13 00:15:00
5:35 PM,57.2,14.0,18,30.25,10.0,NNW,16.1,-,N/A,,Clear,340,2013-02-13 00:35:00
5:55 PM,57.2,14.0,18,30.25,10.0,North,12.7,18.4,N/A,,Clear,350,2013-02-13 00:55:00
6:15 PM,57.2,14.0,18,30.25,10.0,North,11.5,-,N/A,,Clear,350,2013-02-13 01:15:00
6:35 PM,55.4,17.6,23,30.25,10.0,North,8.1,-,N/A,,Clear,350,2013-02-13 01:35:00
6:55 PM,55.4,12.2,18,30.26,10.0,NNE,10.4,-,N/A,,Clear,20,2013-02-13 01:55:00
7:15 PM,55.4,12.2,18,30.27,10.0,North,4.6,-,N/A,,Clear,10,2013-02-13 02:15:00
7:55 PM,53.6,14.0,21,30.27,10.0,Calm,Calm,-,N/A,,Clear,0,2013-02-13 02:55:00
8:15 PM,53.6,14.0,21,30.26,10.0,NE,4.6,-,N/A,,Clear,40,2013-02-13 03:15:00
8:35 PM,51.8,14.0,22,30.26,10.0,North,10.4,-,N/A,,Clear,360,2013-02-13 03:35:00
8:55 PM,51.8,14.0,22,30.25,10.0,North,12.7,-,N/A,,Clear,360,2013-02-13 03:55:00
9:15 PM,51.8,14.0,22,30.25,10.0,North,11.5,-,N/A,,Clear,10,2013-02-13 04:15:00
9:35 PM,51.8,14.0,22,30.25,10.0,NNE,15.0,-,N/A,,Clear,20,2013-02-13 04:35:00
9:55 PM,51.8,14.0,22,30.26,10.0,NNE,10.4,-,N/A,,Clear,20,2013-02-13 04:55:00
10:15 PM,51.8,14.0,22,30.26,10.0,North,10.4,-,N/A,,Clear,10,2013-02-13 05:15:00
10:35 PM,50.0,15.8,26,30.27,10.0,North,8.1,-,N/A,,Clear,360,2013-02-13 05:35:00
10:55 PM,50.0,15.8,26,30.27,10.0,North,5.8,-,N/A,,Clear,360,2013-02-13 05:55:00
11:15 PM,50.0,14.0,24,30.27,10.0,NNE,8.1,-,N/A,,Clear,20,2013-02-13 06:15:00
11:35 PM,48.2,15.8,27,30.27,10.0,NNE,5.8,-,N/A,,Clear,20,2013-02-13 06:35:00
11:55 PM,48.2,17.6,30,30.28,10.0,NNE,5.8,-,N/A,,Clear,30,2013-02-13 06:55:00